Canton, GA

8:55 PM EDT on April 28, 2017 (GMT -0400)
Canton

Weather History for KCNI - May, 2014

Change the Weather History Date:

Tuesday, May 6, 2014

  Actual Average (KMGE) Record (KMGE)
Temperature  
Mean Temperature 70 °F -  
Max Temperature 86 °F 75 °F 87 °F (2012)
Min Temperature 55 °F 55 °F 44 °F (2013)
Cooling Degree Days 6    
Growing Degree Days 20 (Base 50)    
Moisture  
Dew Point 43 °F    
Average Humidity 37    
Maximum Humidity 82    
Minimum Humidity 14    
Precipitation  
Precipitation 0.00 in - - ()
Sea Level Pressure  
Sea Level Pressure 29.99 in    
Wind  
Wind Speed 2 mph (WSW)    
Max Wind Speed 8 mph    
Max Gust Speed -    
Visibility 10 miles    
Events      
Averages and records for this station are not official NWS values.
T = Trace of Precipitation, MM = Missing Value Source: NWS Daily Summary

Daily Weather History Graph

Daily Weather History Graph

Search for Another Location

Airport or City:

Trip Planner

Search our weather history database for the weather conditions in past years. The results will help you decide how hot, cold, wet, or windy it might be!

Date:

Astronomy

May. 06, 2014 Rise Set
Actual Time 6:43 AM EDT 8:25 PM EDT
Civil Twilight 6:15 AM EDT 8:53 PM EDT
Nautical Twilight 5:43 AM EDT 9:25 PM EDT
Astronomical Twilight 5:08 AM EDT 10:00 PM EDT
Moon 12:55 PM EDT (5/6) 1:47 AM EDT (5/6)
Length of Visible Light 14h 37m
Length of Day
13h 42m
Waxing Crescent, 46% of the Moon is Illuminated
May 6
Waxing Crescent
May 6
First Quarter
May 14
Full
May 21
Last Quarter
May 28
New

Hourly Weather History & Observations

Time (EDT) Temp. Dew Point Humidity Pressure Visibility Wind Dir Wind Speed Gust Speed Precip Events Conditions
12:15 AM 68.0 °F 46.4 °F 46% 29.97 in 10.0 mi Calm Calm - N/A   Clear
12:35 AM 68.0 °F 46.4 °F 46% 29.98 in 10.0 mi Calm Calm - N/A   Clear
12:55 AM 68.0 °F 46.4 °F 46% 29.98 in 10.0 mi Calm Calm - N/A   Clear
1:15 AM 68.0 °F 44.6 °F 43% 29.98 in 10.0 mi Calm Calm - N/A   Clear
1:35 AM 66.2 °F 46.4 °F 49% 29.98 in 10.0 mi Calm Calm - N/A   Clear
1:55 AM 66.2 °F 46.4 °F 49% 29.97 in 10.0 mi Calm Calm - N/A   Clear
2:15 AM 62.6 °F 50.0 °F 63% 29.97 in 10.0 mi Calm Calm - N/A   Clear
2:35 AM 59.0 °F 50.0 °F 72% 29.97 in 10.0 mi Calm Calm - N/A   Clear
2:55 AM 59.0 °F 50.0 °F 72% 29.96 in 10.0 mi Calm Calm - N/A   Clear
3:15 AM 60.8 °F 50.0 °F 68% 29.96 in 10.0 mi Calm Calm - N/A   Clear
3:35 AM 60.8 °F 48.2 °F 63% 29.95 in 10.0 mi Calm Calm - N/A   Clear
7:55 AM 55.4 °F 50.0 °F 82% 30.02 in 10.0 mi Calm Calm - N/A   Clear
8:15 AM 60.8 °F 51.8 °F 72% 30.02 in 10.0 mi Calm Calm - N/A   Clear
8:35 AM 62.6 °F 53.6 °F 72% 30.02 in 10.0 mi Calm Calm - N/A   Clear
8:55 AM 64.4 °F 51.8 °F 64% 30.03 in 10.0 mi Calm Calm - N/A   Clear
9:15 AM 68.0 °F 51.8 °F 56% 30.03 in 10.0 mi Calm Calm - N/A   Clear
10:15 AM 73.4 °F 48.2 °F 41% 30.04 in 10.0 mi Calm Calm - N/A   Clear
10:35 AM 75.2 °F 50.0 °F 41% 30.04 in 10.0 mi NW 4.6 mph - N/A   Clear
10:55 AM 77.0 °F 46.4 °F 34% 30.04 in 10.0 mi Calm Calm - N/A   Clear
11:15 AM 78.8 °F 44.6 °F 30% 30.04 in 10.0 mi NW 5.8 mph - N/A   Clear
11:35 AM 78.8 °F 42.8 °F 28% 30.04 in 10.0 mi NW 5.8 mph - N/A   Clear
11:55 AM 78.8 °F 41.0 °F 26% 30.04 in 10.0 mi West 4.6 mph - N/A   Clear
12:15 PM 80.6 °F 41.0 °F 24% 30.03 in 10.0 mi WNW 6.9 mph - N/A   Clear
12:35 PM 80.6 °F 39.2 °F 23% 30.03 in 10.0 mi WNW 3.5 mph - N/A   Clear
12:55 PM 82.4 °F 37.4 °F 20% 30.02 in 10.0 mi West 6.9 mph - N/A   Clear
1:15 PM 82.4 °F 35.6 °F 19% 30.02 in 10.0 mi WSW 3.5 mph - N/A   Clear
1:35 PM 82.4 °F 33.8 °F 17% 30.01 in 10.0 mi SW 6.9 mph - N/A   Clear
1:55 PM 82.4 °F 35.6 °F 19% 30.01 in 10.0 mi SSW 8.1 mph - N/A   Clear
2:15 PM 82.4 °F 33.8 °F 17% 30.00 in 10.0 mi Calm Calm - N/A   Clear
2:35 PM 84.2 °F 35.6 °F 18% 29.99 in 10.0 mi WSW 4.6 mph - N/A   Clear
2:55 PM 86.0 °F 32.0 °F 14% 29.99 in 10.0 mi West 3.5 mph - N/A   Clear
3:15 PM 86.0 °F 35.6 °F 17% 29.99 in 10.0 mi SW 8.1 mph - N/A   Clear
3:35 PM 84.2 °F 33.8 °F 16% 29.98 in 10.0 mi SW 6.9 mph - N/A   Clear
4:15 PM 86.0 °F 33.8 °F 15% 29.97 in 10.0 mi Calm Calm - N/A   Clear
4:35 PM 86.0 °F 33.8 °F 15% 29.96 in 10.0 mi WSW 3.5 mph - N/A   Clear
4:55 PM 86.0 °F 33.8 °F 15% 29.95 in 10.0 mi SW 3.5 mph - N/A   Clear
5:15 PM 84.2 °F 35.6 °F 18% 29.95 in 10.0 mi SW 3.5 mph - N/A   Clear
5:35 PM 86.0 °F 35.6 °F 17% 29.95 in 10.0 mi SW 4.6 mph - N/A   Clear
5:55 PM 84.2 °F 37.4 °F 19% 29.95 in 10.0 mi SW 3.5 mph - N/A   Clear
6:15 PM 84.2 °F 33.8 °F 16% 29.95 in 10.0 mi SW 6.9 mph - N/A   Clear
6:35 PM 82.4 °F 35.6 °F 19% 29.95 in 10.0 mi WSW 4.6 mph - N/A   Clear
6:55 PM 82.4 °F 35.6 °F 19% 29.95 in 10.0 mi SW 5.8 mph - N/A   Clear
7:15 PM 82.4 °F 35.6 °F 19% 29.95 in 10.0 mi SW 3.5 mph - N/A   Clear
7:35 PM 80.6 °F 35.6 °F 20% 29.96 in 10.0 mi Calm Calm - N/A   Clear
7:55 PM 80.6 °F 39.2 °F 23% 29.97 in 10.0 mi Calm Calm - N/A   Clear
8:15 PM 78.8 °F 41.0 °F 26% 29.97 in 10.0 mi Calm Calm - N/A   Clear
8:35 PM 78.8 °F 42.8 °F 28% 29.98 in 10.0 mi Calm Calm - N/A   Clear
8:55 PM 77.0 °F 42.8 °F 29% 29.98 in 10.0 mi SW 3.5 mph - N/A   Clear
9:15 PM 77.0 °F 42.8 °F 29% 29.99 in 10.0 mi SW 3.5 mph - N/A   Clear
9:35 PM 73.4 °F 44.6 °F 36% 29.99 in 10.0 mi Calm Calm - N/A   Clear
9:55 PM 73.4 °F 46.4 °F 38% 30.00 in 10.0 mi Calm Calm - N/A   Clear
10:15 PM 71.6 °F 46.4 °F 41% 30.01 in 10.0 mi Calm Calm - N/A   Clear
10:35 PM 69.8 °F 50.0 °F 49% 30.01 in 10.0 mi Calm Calm - N/A   Clear
10:55 PM 68.0 °F 50.0 °F 52% 30.01 in 10.0 mi Calm Calm - N/A   Clear
11:15 PM 64.4 °F 50.0 °F 59% 30.02 in 10.0 mi Calm Calm - N/A   Clear
11:35 PM 66.2 °F 50.0 °F 56% 30.02 in 10.0 mi Calm Calm - N/A   Clear
11:55 PM 62.6 °F 51.8 °F 68% 30.02 in 10.0 mi Calm Calm - N/A   Clear